N1EO Weather Reports


Display with metric or nautical units.
time (UTC)temp
F
wind
direction
speed
MPH
gust
MPH
rain 1hr
in
rain 24hr
in
rain mn
in
humidity
%
barometer
mb
20200402073007 38 338 0.0 8.0 0.00 0.00 0.00 100 1004.2
20200402071506 38 335 1.0 3.0 0.00 0.00 0.00 100 1004.3
20200402070006 38 37 0.0 0.0 0.00 0.00 0.00 99 1004.4
20200402064506 38 37 0.0 0.0 0.00 0.00 0.00 99 1004.5
20200402063008 38 37 0.0 0.0 0.00 0.00 0.00 99 1004.7
20200402061506 38 37 0.0 0.0 0.00 0.00 0.00 100 1004.8
20200402060006 38 37 0.0 0.0 0.00 0.00 0.00 100 1005.1
20200402054506 38 37 0.0 0.0 0.00 0.00 0.00 99 1005.4
20200402053007 38 37 0.0 0.0 0.00 0.00 0.00 98 1005.6
20200402051506 38 37 0.0 0.0 0.00 0.00 0.00 98 1005.6
20200402050006 38 37 0.0 5.0 0.00 0.00 0.00 98 1005.9
20200402044505 38 19 0.0 5.0 0.00 0.00 0.00 98 1006.0
20200402043007 37 25 0.0 0.0 0.00 0.00 0.00 98 1006.3
20200402041506 37 25 0.0 0.0 0.00 0.00 0.00 98 1006.3
20200402040006 37 25 0.0 0.0 0.00 0.00 0.00 99 1006.3
20200402034506 37 25 0.0 0.0 0.00 0.00 0.00 98 1006.6
20200402033007 37 25 0.0 0.0 0.00 0.00 0.00 98 1006.7
20200402031506 37 25 0.0 0.0 0.00 0.00 0.00 98 1006.7
20200402030005 37 25 0.0 5.0 0.00 0.00 0.00 97 1006.8
20200402024506 37 32 0.0 0.0 0.00 0.00 0.00 97 1006.8
20200402023006 37 32 0.0 0.0 0.00 0.00 0.00 96 1007.2
20200402021506 37 32 0.0 0.0 0.00 0.00 0.00 94 1007.3
20200402020005 38 32 0.0 0.0 0.00 0.00 0.00 94 1007.5
20200402014506 38 32 0.0 0.0 0.00 0.00 0.00 94 1007.7
20200402013006 38 32 0.0 0.0 0.00 0.00 0.00 93 1007.8
20200402011506 38 32 0.0 0.0 0.00 0.00 0.00 92 1007.8
20200402010005 39 32 0.0 0.0 0.00 0.00 0.00 92 1007.9
20200402004505 39 32 0.0 0.0 0.00 0.00 0.00 91 1007.8
20200402003006 40 32 0.0 0.0 0.00 0.00 0.00 89 1007.7
20200402001506 42 32 0.0 0.0 0.00 0.00 0.00 85 1007.9
20200402000007 43 32 0.0 3.0 0.00 0.00 0.00 83 1007.8
20200401234506 43 79 0.0 0.0 0.00 0.00 0.00 80 1007.8
20200401233006 44 79 0.0 6.0 0.00 0.00 0.00 79 1007.8
20200401231506 44 40 0.0 0.0 0.00 0.00 0.00 79 1007.8
20200401230005 45 40 0.0 0.0 0.00 0.00 0.00 77 1007.8
20200401224506 45 40 0.0 0.0 0.00 0.00 0.00 77 1007.8
20200401223007 45 40 0.0 6.0 0.00 0.00 0.00 76 1007.9
20200401221506 46 56 0.0 8.0 0.00 0.00 0.00 75 1008.0
20200401220006 46 90 1.0 8.0 0.00 0.00 0.00 73 1008.1
20200401214506 46 62 0.0 8.0 0.00 0.00 0.00 75 1008.0
20200401213006 46 86 1.0 8.0 0.00 0.00 0.00 72 1008.1
20200401211506 46 51 0.0 8.0 0.00 0.00 0.00 73 1008.1
20200401210006 47 65 1.0 7.0 0.00 0.00 0.00 71 1008.1
20200401204506 47 164 1.0 9.0 0.00 0.00 0.00 72 1008.1
20200401203007 47 64 1.0 10.0 0.00 0.00 0.00 70 1008.0
20200401201506 47 115 1.0 7.0 0.00 0.00 0.00 70 1008.1
20200401200006 47 168 1.0 12.0 0.00 0.00 0.00 69 1008.1
20200401194506 47 46 1.0 9.0 0.00 0.00 0.00 69 1008.2
20200401193006 48 113 0.0 5.0 0.00 0.00 0.00 70 1008.4
20200401191505 48 59 3.0 7.0 0.00 0.00 0.00 68 1008.3
20200401190006 48 49 1.0 9.0 0.00 0.00 0.00 69 1008.3
20200401184506 48 7 1.0 10.0 0.00 0.00 0.00 70 1008.3
20200401183006 48 0 1.0 8.0 0.00 0.00 0.00 69 1008.4
20200401181505 47 71 0.0 8.0 0.00 0.00 0.00 70 1008.5
20200401180005 47 341 3.0 8.0 0.00 0.00 0.00 71 1008.6
20200401174506 46 82 0.0 8.0 0.00 0.00 0.00 73 1008.9
20200401173007 46 265 2.0 9.0 0.00 0.00 0.00 72 1009.2
20200401171505 46 253 0.0 8.0 0.00 0.00 0.00 72 1009.3
20200401170006 45 6 1.0 9.0 0.00 0.00 0.00 75 1009.3
20200401164506 44 229 2.0 7.0 0.00 0.00 0.00 75 1009.6
20200401163006 45 0 0.0 6.0 0.00 0.00 0.00 75 1009.7
20200401161506 44 133 1.0 10.0 0.00 0.00 0.00 74 1009.7
20200401160006 44 71 2.0 10.0 0.00 0.00 0.00 75 1009.9
20200401154506 44 20 2.0 8.0 0.00 0.00 0.00 77 1010.1
20200401153006 43 164 1.0 8.0 0.00 0.00 0.00 77 1010.7
20200401151506 43 319 3.0 12.0 0.00 0.00 0.00 76 1010.8
20200401150005 43 319 0.0 14.0 0.00 0.00 0.00 82 1010.7
20200401144506 41 62 2.0 12.0 0.00 0.00 0.00 80 1010.9
20200401143006 41 13 1.0 7.0 0.00 0.00 0.00 83 1011.2
20200401141506 41 354 5.0 8.0 0.00 0.00 0.00 81 1011.4
20200401140006 42 94 5.0 9.0 0.00 0.00 0.00 81 1011.4
20200401134506 41 101 1.0 12.0 0.00 0.00 0.00 84 1011.7
20200401133006 39 108 5.0 14.0 0.00 0.00 0.00 88 1011.8
20200401131505 37 11 2.0 9.0 0.00 0.00 0.00 92 1011.9
20200401130005 36 171 2.0 8.0 0.00 0.00 0.00 94 1012.0
20200401124506 35 59 1.0 8.0 0.00 0.00 0.00 94 1012.0
20200401123006 35 131 2.0 7.0 0.00 0.00 0.00 96 1012.0
20200401121505 34 75 1.0 6.0 0.00 0.00 0.00 99 1012.0
20200401120006 32 36 2.0 6.0 0.00 0.00 0.00 100 1012.2
20200401114509 31 49 0.0 0.0 0.00 0.00 0.00 100 1012.4
20200401113006 31 49 0.0 5.0 0.00 0.00 0.00 100 1012.7
20200401111506 31 144 0.0 7.0 0.00 0.00 0.00 99 1012.8
20200401110006 31 62 2.0 6.0 0.00 0.00 0.00 100 1012.7
20200401104506 30 65 0.0 7.0 0.00 0.00 0.00 100 1012.7
20200401103006 30 56 2.0 6.0 0.00 0.00 0.00 100 1012.8
20200401101506 29 44 1.0 8.0 0.00 0.00 0.00 100 1012.7
20200401100006 29 134 0.0 3.0 0.00 0.00 0.00 100 1012.7
20200401094506 29 52 0.0 0.0 0.00 0.00 0.00 100 1012.5
20200401093010 29 52 0.0 0.0 0.00 0.00 0.00 100 1012.6
20200401091505 30 52 0.0 0.0 0.00 0.00 0.00 100 1012.8
20200401090006 30 52 0.0 0.0 0.00 0.00 0.00 100 1012.9
20200401084505 31 52 0.0 0.0 0.00 0.00 0.00 99 1012.9
20200401083006 32 52 0.0 5.0 0.00 0.00 0.00 98 1013.1
20200401081505 32 91 0.0 6.0 0.00 0.00 0.00 100 1013.1
20200401080006 31 47 0.0 9.0 0.00 0.00 0.00 100 1012.9
20200401074506 30 72 0.0 6.0 0.00 0.00 0.00 100 1012.7